Cotulla, TX

3:49 AM CDT on April 29, 2017 (GMT -0500)
Cotulla-La Salle County

Weather History for KCOT - August, 2013

Change the Weather History Date:

Friday, August 2, 2013

  Actual Average Record
Temperature  
Mean Temperature 88 °F -  
Max Temperature 104 °F 97 °F 106 °F (2011)
Min Temperature 73 °F 72 °F 69 °F (2010)
Cooling Degree Days 22    
Growing Degree Days 38 (Base 50)    
Moisture  
Dew Point 65 °F    
Average Humidity 51    
Maximum Humidity 90    
Minimum Humidity 23    
Precipitation  
Precipitation 0.00 in - - ()
Sea Level Pressure  
Sea Level Pressure 29.90 in    
Wind  
Wind Speed 7 mph (SE)    
Max Wind Speed 17 mph    
Max Gust Speed 24 mph    
Visibility 10 miles    
Events      
Averages and records for this station are not official NWS values.
T = Trace of Precipitation, MM = Missing Value Source: NWS Daily Summary

Daily Weather History Graph

Daily Weather History Graph

Search for Another Location

Airport or City:

Trip Planner

Search our weather history database for the weather conditions in past years. The results will help you decide how hot, cold, wet, or windy it might be!

Date:

Astronomy

Aug. 02, 2013 Rise Set
Actual Time 6:59 AM CDT 8:26 PM CDT
Civil Twilight 6:33 AM CDT 8:51 PM CDT
Nautical Twilight 6:03 AM CDT 9:22 PM CDT
Astronomical Twilight 5:32 AM CDT 9:53 PM CDT
Moon 3:25 AM CDT (8/2) 5:21 PM CDT (8/2)
Length of Visible Light 14h 17m
Length of Day
13h 27m
Waning Crescent, 15% of the Moon is Illuminated
Aug 2
Waning Crescent
Aug 6
New
Aug 14
First Quarter
Aug 20
Full
Aug 28
Last Quarter

Hourly Weather History & Observations

Time (CDT) Temp. Heat Index Dew Point Humidity Pressure Visibility Wind Dir Wind Speed Gust Speed Precip Events Conditions
12:53 AM 82.9 °F 85.0 °F 66.0 °F 56% 29.93 in 10.0 mi SE 6.9 mph - N/A   Clear
1:53 AM 82.0 °F 85.9 °F 70.0 °F 67% 29.92 in 10.0 mi SE 8.1 mph - N/A   Clear
2:53 AM 80.1 °F 83.2 °F 70.0 °F 71% 29.91 in 10.0 mi SE 8.1 mph - N/A   Clear
3:53 AM 78.1 °F - 71.1 °F 79% 29.91 in 10.0 mi SE 5.8 mph - N/A   Unknown
4:53 AM 75.9 °F - 71.1 °F 85% 29.91 in 10.0 mi SE 3.5 mph - N/A   Clear
5:53 AM 75.0 °F - 71.1 °F 87% 29.91 in 10.0 mi ESE 3.5 mph - N/A   Clear
6:53 AM 73.0 °F - 70.0 °F 90% 29.92 in 10.0 mi Calm Calm - N/A   Clear
7:53 AM 75.9 °F - 72.0 °F 87% 29.94 in 10.0 mi ESE 5.8 mph - N/A   Clear
8:53 AM 82.0 °F 86.7 °F 72.0 °F 71% 29.95 in 10.0 mi SE 6.9 mph - N/A   Clear
9:53 AM 84.9 °F 90.1 °F 71.1 °F 63% 29.96 in 10.0 mi SSE 10.4 mph - N/A   Clear
10:53 AM 89.1 °F 93.7 °F 69.1 °F 52% 29.96 in 10.0 mi Variable 5.8 mph - N/A   Clear
11:53 AM 93.0 °F 95.9 °F 66.0 °F 41% 29.95 in 10.0 mi Variable 4.6 mph - N/A   Clear
12:53 PM 97.0 °F 97.4 °F 61.0 °F 30% 29.93 in 10.0 mi South 8.1 mph - N/A   Clear
1:53 PM 99.0 °F 99.5 °F 60.1 °F 28% 29.91 in 10.0 mi SSE 6.9 mph 19.6 mph N/A   Clear
2:53 PM 100.0 °F 100.7 °F 60.1 °F 27% 29.88 in 10.0 mi SSW 9.2 mph - N/A   Clear
3:53 PM 100.9 °F 101.6 °F 60.1 °F 26% 29.85 in 10.0 mi Variable 4.6 mph 20.7 mph N/A   Clear
4:53 PM 102.0 °F 101.6 °F 57.9 °F 23% 29.83 in 10.0 mi ESE 9.2 mph 19.6 mph N/A   Clear
5:53 PM 102.0 °F 101.6 °F 57.9 °F 23% 29.82 in 10.0 mi SE 11.5 mph - N/A   Clear
6:53 PM 100.9 °F 100.0 °F 57.0 °F 23% 29.82 in 10.0 mi ESE 8.1 mph - N/A   Clear
7:53 PM 98.1 °F 97.2 °F 57.9 °F 26% 29.83 in 10.0 mi SSE 9.2 mph 16.1 mph N/A   Clear
8:53 PM 95.0 °F 97.4 °F 64.9 °F 37% 29.85 in 10.0 mi SE 12.7 mph 23.0 mph N/A   Clear
9:53 PM 91.0 °F 91.9 °F 63.0 °F 39% 29.87 in 10.0 mi SE 17.3 mph 24.2 mph N/A   Clear
10:53 PM 88.0 °F 88.7 °F 63.0 °F 43% 29.90 in 10.0 mi SE 9.2 mph - N/A   Clear
11:53 PM 84.9 °F 86.6 °F 64.9 °F 51% 29.93 in 10.0 mi ESE 12.7 mph 19.6 mph N/A   Clear